Date String (YYYY-MM-DD hh:mm:ss) UTC,Instrument flags,Ambient pressure (hPa),Sample flow (lpm),Bypass flow (lpm),Sample temperature (°C),Ambient temperature (°C),ASC tube jacket temperature (°C),LED temperature (°C),Box temperature (°C),Sample RH (%),Span deviation,Mass concentration (μg/m³),Mass concentration (μg/m³),Mass concentration (μg/m³)
DateTimeUTC,F1_M11,P_M11,Q1_M11,Q2_M11,T1_M11,T2_M11,T3_M11,T4_M11,T5_M11,U1_M11,ZSPAN_M11,X2_M11,X0_M11,X1_M11
2022-01-11 17:00:00,,0832.1,4.99,0.00,22.6,22.1,00.0,31.6,24.3,04.0,0000.0,0000.15,0000.20,0000.13
2022-01-11 17:01:00,,0832.1,5.01,0.00,22.6,22.0,00.0,31.6,24.3,04.3,0000.0,0000.15,0000.18,0000.13
2022-01-11 17:02:00,,0832.1,4.99,0.00,22.5,21.9,00.0,31.6,24.2,04.1,0000.0,0000.15,0000.24,0000.13
2022-01-11 17:03:00,,0832.1,4.99,0.00,22.5,21.9,00.0,31.6,24.2,04.5,0000.0,0000.16,0000.30,0000.13
2022-01-11 17:04:00,,0832.2,5.01,0.00,22.5,21.8,00.0,31.6,24.1,04.3,0000.0,0000.17,0000.34,0000.13
2022-01-11 17:05:00,,0832.2,4.99,0.00,22.5,21.9,00.0,31.6,24.2,04.2,0000.0,0000.18,0000.35,0000.14
2022-01-11 17:06:00,,0832.1,5.00,0.00,22.5,21.9,00.0,31.6,24.2,04.2,0000.0,0000.19,0000.38,0000.14
2022-01-11 17:07:00,,0832.2,5.01,0.00,22.5,21.9,00.0,31.6,24.3,04.2,0000.0,0000.20,0000.38,0000.14
2022-01-11 17:08:00,,0832.3,4.99,0.00,22.6,21.9,00.0,31.6,24.3,04.8,0000.0,0000.20,0000.39,0000.15
2022-01-11 17:09:00,,0832.3,5.00,0.00,22.6,21.9,00.0,31.6,24.3,04.6,0000.0,0000.21,0000.40,0000.15
2022-01-11 17:10:00,,0832.3,5.00,0.00,22.6,21.9,00.0,31.6,24.3,04.6,0000.0,0000.22,0000.41,0000.16
2022-01-11 17:11:00,,0832.3,5.01,0.00,22.6,21.9,00.0,31.6,24.3,04.9,0000.0,0000.21,0000.39,0000.16
2022-01-11 17:12:00,,0832.5,4.99,0.00,22.6,21.9,00.0,31.6,24.3,05.3,0000.0,0000.21,0000.39,0000.16
2022-01-11 17:13:00,,0832.5,4.99,0.00,22.6,21.9,00.0,31.6,24.4,05.7,0000.0,0000.22,0000.38,0000.16
2022-01-11 17:14:00,,0832.5,5.01,0.00,22.6,21.9,00.0,31.6,24.4,04.8,0000.0,0000.23,0000.37,0000.16
2022-01-11 17:15:00,,0832.5,5.00,0.00,22.6,21.9,00.0,31.6,24.4,04.5,0000.0,0000.22,0000.34,0000.16
2022-01-11 17:16:00,,0832.5,4.99,0.00,22.7,21.9,00.0,31.6,24.4,04.5,0000.0,0000.22,0000.35,0000.16
2022-01-11 17:17:00,,0832.5,5.00,0.00,22.7,22.0,00.0,31.6,24.5,04.5,0000.0,0000.23,0000.38,0000.16
2022-01-11 17:18:00,,0832.5,5.02,0.00,22.7,22.0,00.0,31.6,24.5,04.4,0000.0,0000.23,0000.39,0000.17
2022-01-11 17:19:00,,0832.6,4.99,0.00,22.7,22.0,00.0,31.6,24.5,04.7,0000.0,0000.22,0000.38,0000.16
2022-01-11 17:20:00,,0832.6,5.01,0.00,22.7,22.0,00.0,31.6,24.5,04.9,0000.0,0000.24,0000.41,0000.16
2022-01-11 17:21:00,,0832.6,4.99,0.00,22.7,22.0,00.0,31.6,24.5,05.1,0000.0,0000.23,0000.40,0000.16
2022-01-11 17:22:00,,0832.7,5.01,0.00,22.7,22.0,00.0,31.7,24.5,04.7,0000.0,0000.23,0000.40,0000.16
2022-01-11 17:23:00,,0832.6,5.00,0.00,22.7,22.1,00.0,31.7,24.5,04.7,0000.0,0000.23,0001.09,0000.17
2022-01-11 17:24:00,,0832.7,4.99,0.00,22.7,22.1,00.0,31.7,24.5,04.4,0000.0,0000.23,0001.60,0000.17
2022-01-11 17:25:00,,0832.7,4.99,0.00,22.8,22.1,00.0,31.7,24.6,04.3,0000.0,0000.23,0001.59,0000.18
2022-01-11 17:26:00,,0832.7,5.00,0.00,22.8,22.1,00.0,31.7,24.6,04.2,0000.0,0000.24,0001.62,0000.18
2022-01-11 17:27:00,,0832.7,5.00,0.00,22.8,22.1,00.0,31.7,24.6,04.1,0000.0,0000.24,0001.62,0000.18
2022-01-11 17:28:00,,0832.8,5.00,0.00,22.8,22.1,00.0,31.7,24.6,03.9,0000.0,0000.21,0001.56,0000.18
2022-01-11 17:29:00,,0832.8,5.00,0.00,22.8,22.2,00.0,31.7,24.7,03.9,0000.0,0000.21,0001.55,0000.18
2022-01-11 17:30:00,,0832.8,4.99,0.00,22.8,22.2,00.0,31.7,24.7,03.7,0000.0,0000.21,0001.55,0000.18
2022-01-11 17:31:00,,0832.7,5.01,0.00,22.8,22.2,00.0,31.7,24.7,03.7,0000.0,0000.20,0001.52,0000.18
2022-01-11 17:32:00,,0832.7,5.00,0.00,22.8,22.2,00.0,31.7,24.7,03.6,0000.0,0000.20,0001.52,0000.18
2022-01-11 17:33:00,,0832.8,5.00,0.00,22.9,22.3,00.0,31.8,24.7,05.5,0000.0,0000.23,0001.61,0000.18
2022-01-11 17:34:00,,0832.8,5.00,0.00,22.9,22.3,00.0,31.8,24.7,05.8,0000.0,0000.27,0001.27,0000.19
2022-01-11 17:35:00,,0832.9,5.00,0.00,22.9,22.3,00.0,31.8,24.7,06.0,0000.0,0000.30,0001.29,0000.20
2022-01-11 17:36:00,,0832.8,5.01,0.00,22.9,22.3,00.0,31.8,24.7,05.5,0000.0,0000.36,0001.48,0000.21
2022-01-11 17:37:00,,0832.8,5.00,0.00,22.9,22.3,00.0,31.8,24.8,05.1,0000.0,0000.39,0001.55,0000.22
2022-01-11 17:38:00,,0832.8,4.99,0.00,22.9,22.3,00.0,31.8,24.7,04.9,0000.0,0000.43,0001.65,0000.23
2022-01-11 17:39:00,,0832.9,5.00,0.00,22.9,22.3,00.0,31.8,24.7,04.7,0000.0,0000.46,0001.75,0000.24
2022-01-11 17:40:00,,0832.9,4.99,0.00,22.9,22.3,00.0,31.8,24.8,04.2,0000.0,0000.51,0001.88,0000.24
2022-01-11 17:41:00,,0832.9,4.99,0.00,22.9,22.3,00.0,31.8,24.8,04.3,0000.0,0000.53,0001.99,0000.25
2022-01-11 17:42:00,,0833.0,5.00,0.00,22.9,22.4,00.0,31.9,24.8,03.8,0000.0,0000.54,0002.08,0000.25
2022-01-11 17:43:00,,0833.0,5.00,0.00,23.0,22.4,00.0,31.9,24.8,04.3,0000.0,0000.56,0002.14,0000.25
2022-01-11 17:44:00,,0833.0,5.00,0.00,23.0,22.4,00.0,31.9,24.8,04.3,0000.0,0000.57,0002.16,0000.25
2022-01-11 17:45:00,,0833.0,5.00,0.00,23.0,22.4,00.0,31.9,24.8,04.4,0000.0,0000.55,0001.72,0000.24
2022-01-11 17:46:00,,0833.0,5.00,0.00,23.0,22.4,00.0,31.9,24.8,04.4,0000.0,0000.54,0001.34,0000.23
2022-01-11 17:47:00,,0833.0,5.00,0.00,23.0,22.4,00.0,31.9,24.9,04.2,0000.0,0000.49,0001.15,0000.23
2022-01-11 17:48:00,,0833.1,4.99,0.00,23.0,22.4,00.0,31.9,24.9,04.1,0000.0,0000.48,0001.10,0000.22
2022-01-11 17:49:00,,0833.0,5.01,0.00,23.0,22.4,00.0,31.9,24.9,04.1,0000.0,0000.48,0001.13,0000.21
2022-01-11 17:50:00,,0833.0,5.00,0.00,23.0,22.4,00.0,31.9,24.9,04.0,0000.0,0000.47,0001.17,0000.21
2022-01-11 17:51:00,,0833.0,4.99,0.00,23.1,22.5,00.0,32.0,24.9,04.0,0000.0,0000.44,0001.07,0000.20
2022-01-11 17:52:00,,0833.0,5.01,0.00,23.1,22.5,00.0,32.0,24.9,04.0,0000.0,0000.42,0001.07,0000.20
2022-01-11 17:53:00,,0833.1,4.99,0.00,23.1,22.5,00.0,32.0,24.9,03.8,0000.0,0000.44,0001.16,0000.20
2022-01-11 17:54:00,,0833.1,5.01,0.00,23.1,22.5,00.0,32.0,24.9,03.9,0000.0,0000.43,0001.11,0000.20
2022-01-11 17:55:00,,0833.0,4.99,0.00,23.1,22.5,00.0,32.0,24.9,04.0,0000.0,0000.40,0001.02,0000.20
2022-01-11 17:56:00,,0833.0,5.00,0.00,23.1,22.5,00.0,32.0,24.9,04.0,0000.0,0000.40,0001.02,0000.19
2022-01-11 17:57:00,,0833.1,5.00,0.00,23.1,22.5,00.0,32.0,24.9,04.0,0000.0,0000.38,0000.99,0000.20
2022-01-11 17:58:00,,0833.0,4.99,0.00,23.1,22.5,00.0,32.0,24.9,04.0,0000.0,0000.39,0001.00,0000.20
2022-01-11 17:59:00,,0833.0,5.01,0.00,23.1,22.5,00.0,32.0,25.0,04.1,0000.0,0000.39,0000.99,0000.20
